| time (UTC) | temp F | wind direction | speed knots | gust knots | rain 1hr in | rain 24hr in | rain mn in | humidity % | barometer mb |
| 20260507203805 | 77 | 284 | 1.7 | 2.6 | 0.00 | 2.47 | 2.53 | 78 | 1013.5 |
| 20260507183306 | 71 | 19 | 1.7 | 4.3 | 0.06 | 3.42 | 2.53 | 93 | 1014.9 |
| 20260507182805 | 71 | 39 | 2.6 | 5.2 | 0.06 | 3.42 | 2.53 | 93 | 1014.8 |
| 20260507181806 | 71 | 74 | 0.9 | 7.0 | 0.06 | 3.42 | 2.53 | 95 | 1014.4 |
| 20260507181306 | 71 | 5 | 0.9 | 7.0 | 0.06 | 3.43 | 2.53 | 93 | 1014.9 |
| 20260507180806 | 71 | 5 | 1.7 | 7.0 | 0.06 | 3.43 | 2.53 | 93 | 1014.9 |
| 20260507180306 | 71 | 355 | 4.3 | 7.0 | 0.07 | 3.43 | 2.53 | 93 | 1014.9 |
| 20260507175806 | 71 | 355 | 2.6 | 4.3 | 0.14 | 3.43 | 2.53 | 93 | 1014.9 |
| 20260507175307 | 71 | 344 | 1.7 | 4.3 | 0.14 | 3.43 | 2.53 | 93 | 1014.9 |
| 20260507174805 | 71 | 300 | 0.9 | 2.6 | 0.15 | 3.43 | 2.53 | 93 | 1014.9 |
| 20260507174306 | 71 | 5 | 0.9 | 2.6 | 0.29 | 3.43 | 2.53 | 93 | 1014.9 |
| 20260507173805 | 71 | 5 | 0.9 | 2.6 | 0.24 | 3.37 | 2.47 | 93 | 1014.9 |
| 20260507173306 | 71 | 30 | 0.9 | 1.7 | 0.26 | 3.37 | 2.47 | 93 | 1014.9 |
| 20260507172806 | 70 | 0 | 0.0 | 1.7 | 0.27 | 3.37 | 2.47 | 96 | 1015.2 |
| 20260507172307 | 70 | 0 | 0.0 | 1.7 | 0.27 | 3.37 | 2.47 | 96 | 1015.2 |
| 20260507171805 | 70 | 0 | 0.0 | 1.7 | 0.28 | 3.37 | 2.47 | 96 | 1015.2 |
| 20260507171305 | 70 | 152 | 0.9 | 2.6 | 0.29 | 3.37 | 2.47 | 96 | 1015.2 |
| 20260507170805 | 70 | 180 | 0.9 | 2.6 | 0.29 | 3.37 | 2.47 | 96 | 1015.0 |
| 20260507165806 | 71 | 0 | 0.0 | 2.6 | 0.61 | 3.29 | 2.39 | 96 | 1014.9 |
| 20260507165306 | 71 | 0 | 0.0 | 2.6 | 0.69 | 3.29 | 2.39 | 96 | 1014.9 |
| 20260507164805 | 71 | 0 | 0.9 | 2.6 | 1.63 | 3.28 | 2.38 | 96 | 1014.9 |
| 20260507164306 | 71 | 279 | 2.6 | 2.6 | 1.49 | 3.14 | 2.24 | 96 | 1014.9 |
| 20260507163806 | 71 | 309 | 0.9 | 2.6 | 0.71 | 3.13 | 2.23 | 96 | 1014.9 |
| 20260507163305 | 71 | 0 | 0.0 | 2.6 | 0.69 | 3.11 | 2.21 | 96 | 1014.9 |
| 20260507162805 | 72 | 0 | 0.0 | 1.7 | 0.68 | 3.10 | 2.20 | 96 | 1015.2 |
| 20260507162307 | 72 | 0 | 0.0 | 1.7 | 0.68 | 3.10 | 2.20 | 96 | 1015.2 |
| 20260507161805 | 72 | 189 | 1.7 | 2.6 | 0.67 | 3.10 | 2.19 | 96 | 1015.2 |
| 20260507161305 | 72 | 0 | 0.0 | 4.3 | 1.44 | 3.09 | 2.18 | 96 | 1015.2 |
| 20260507160805 | 72 | 204 | 0.9 | 5.2 | 1.45 | 3.09 | 2.18 | 96 | 1014.9 |
| 20260507155805 | 72 | 223 | 2.6 | 5.2 | 1.44 | 2.69 | 1.78 | 96 | 1014.9 |
| 20260507155307 | 72 | 190 | 4.3 | 2.6 | 1.60 | 2.61 | 1.70 | 96 | 1014.9 |
| 20260507152306 | 71 | 178 | 1.7 | 1.7 | 1.50 | 1.63 | 1.52 | 96 | 1014.6 |
| 20260507151804 | 71 | 178 | 0.9 | 1.7 | 1.50 | 1.63 | 1.52 | 96 | 1014.6 |
| 20260507150804 | 71 | 110 | 1.7 | 4.3 | 1.50 | 1.63 | 1.52 | 96 | 1014.2 |
| 20260507150304 | 71 | 110 | 0.9 | 6.1 | 1.50 | 1.63 | 1.52 | 96 | 1014.2 |
| 20260507145306 | 71 | 0 | 0.0 | 10.4 | 0.72 | 0.84 | 0.73 | 96 | 1013.9 |
| 20260507144804 | 71 | 0 | 0.0 | 10.4 | 0.62 | 0.73 | 0.62 | 93 | 1014.2 |
| 20260507144304 | 71 | 294 | 2.6 | 10.4 | 0.34 | 0.45 | 0.34 | 93 | 1014.2 |
| 20260507143304 | 71 | 287 | 1.7 | 5.2 | 0.10 | 0.21 | 0.10 | 93 | 1014.3 |
| 20260507142804 | 72 | 219 | 1.7 | 8.7 | 0.02 | 0.13 | 0.02 | 89 | 1013.7 |
| 20260507142306 | 72 | 216 | 1.7 | 10.4 | 0.02 | 0.13 | 0.02 | 89 | 1013.7 |
| 20260507141804 | 72 | 205 | 1.7 | 10.4 | 0.02 | 0.13 | 0.02 | 91 | 1013.3 |
| 20260507141304 | 72 | 190 | 1.7 | 10.4 | 0.02 | 0.13 | 0.02 | 87 | 1013.5 |
| 20260507140805 | 73 | 229 | 2.6 | 10.4 | 0.02 | 0.13 | 0.02 | 96 | 1014.5 |
| 20260507140304 | 73 | 223 | 2.6 | 10.4 | 0.02 | 0.13 | 0.02 | 96 | 1014.4 |
| 20260507135804 | 73 | 236 | 0.9 | 8.7 | 0.01 | 0.12 | 0.01 | 96 | 1013.2 |
| 20260507135306 | 73 | 202 | 7.8 | 8.7 | 0.01 | 0.12 | 0.01 | 96 | 1013.2 |
| 20260507134805 | 76 | 227 | 4.3 | 8.7 | 0.00 | 0.11 | 0.00 | 93 | 1013.2 |
| 20260507134305 | 76 | 218 | 1.7 | 11.3 | 0.00 | 0.11 | 0.00 | 93 | 1013.2 |
| 20260507133804 | 77 | 214 | 6.1 | 11.3 | 0.00 | 0.11 | 0.00 | 87 | 1012.9 |
| 20260507133304 | 77 | 193 | 4.3 | 11.3 | 0.00 | 0.11 | 0.00 | 87 | 1012.9 |
| 20260507132804 | 77 | 220 | 1.7 | 10.4 | 0.00 | 0.11 | 0.00 | 87 | 1012.9 |
| 20260507132307 | 77 | 221 | 2.6 | 10.4 | 0.00 | 0.11 | 0.00 | 87 | 1012.9 |
| 20260507131805 | 77 | 215 | 0.9 | 10.4 | 0.00 | 0.11 | 0.00 | 87 | 1012.9 |